TimeEST,TemperatureF,Dew PointF,Humidity,Sea Level PressureIn,VisibilityMPH,Wind Direction,Wind SpeedMPH,Gust SpeedMPH,PrecipitationIn,Events,Conditions,WindDirDegrees,DateUTC
12:53 AM,43.0,37.9,82,30.11,10.0,West,5.8,-,N/A,,Overcast,280,2013-11-03 04:53:00
1:36 AM,42.8,39.2,87,30.12,10.0,West,4.6,-,N/A,,Overcast,280,2013-11-03 05:36:00
1:53 AM,43.0,39.0,86,30.12,10.0,WNW,4.6,-,N/A,,Overcast,290,2013-11-03 05:53:00
1:09 AM,42.8,39.2,87,30.11,10.0,WNW,4.6,-,N/A,,Overcast,290,2013-11-03 06:09:00
1:53 AM,43.0,37.9,82,30.12,10.0,WNW,6.9,-,N/A,,Overcast,290,2013-11-03 06:53:00
2:53 AM,42.1,37.0,82,30.14,10.0,WNW,8.1,-,N/A,,Overcast,300,2013-11-03 07:53:00
3:53 AM,39.9,37.0,89,30.17,10.0,WNW,5.8,-,N/A,,Mostly Cloudy,290,2013-11-03 08:53:00
4:53 AM,39.0,36.0,89,30.20,10.0,WNW,3.5,-,N/A,,Overcast,290,2013-11-03 09:53:00
5:53 AM,37.0,35.1,93,30.23,8.0,West,3.5,-,N/A,,Partly Cloudy,270,2013-11-03 10:53:00
6:53 AM,36.0,35.1,97,30.25,6.0,West,3.5,-,N/A,,Clear,280,2013-11-03 11:53:00
7:53 AM,36.0,35.1,97,30.27,3.0,Calm,Calm,-,N/A,,Clear,0,2013-11-03 12:53:00
8:10 AM,37.4,35.6,93,30.27,4.0,Calm,Calm,-,N/A,,Mostly Cloudy,0,2013-11-03 13:10:00
8:21 AM,37.4,35.6,93,30.27,4.0,Calm,Calm,-,N/A,,Overcast,0,2013-11-03 13:21:00
8:42 AM,39.2,37.4,93,30.28,4.0,Calm,Calm,-,N/A,,Scattered Clouds,0,2013-11-03 13:42:00
8:53 AM,39.9,37.9,93,30.29,5.0,Calm,Calm,-,N/A,,Clear,0,2013-11-03 13:53:00
9:09 AM,39.2,37.4,93,30.29,6.0,Calm,Calm,-,N/A,,Mostly Cloudy,0,2013-11-03 14:09:00
9:32 AM,42.8,37.4,81,30.30,10.0,Calm,Calm,-,N/A,,Overcast,0,2013-11-03 14:32:00
9:53 AM,43.0,37.9,82,30.31,10.0,Calm,Calm,-,N/A,,Overcast,0,2013-11-03 14:53:00
10:53 AM,45.0,37.9,76,30.33,10.0,ENE,3.5,-,N/A,,Overcast,70,2013-11-03 15:53:00
11:53 AM,46.0,37.0,71,30.33,10.0,East,3.5,-,N/A,,Overcast,80,2013-11-03 16:53:00
12:22 PM,46.4,35.6,66,30.31,10.0,Calm,Calm,-,N/A,,Scattered Clouds,0,2013-11-03 17:22:00
12:53 PM,46.9,35.1,63,30.32,10.0,Calm,Calm,-,N/A,,Clear,0,2013-11-03 17:53:00
1:53 PM,51.1,35.1,54,30.29,10.0,Variable,5.8,-,N/A,,Mostly Cloudy,0,2013-11-03 18:53:00
2:53 PM,48.9,36.0,61,30.30,10.0,ESE,5.8,-,N/A,,Mostly Cloudy,120,2013-11-03 19:53:00
3:53 PM,50.0,34.0,54,30.29,10.0,SE,5.8,-,N/A,,Overcast,130,2013-11-03 20:53:00
4:53 PM,48.9,37.0,64,30.30,10.0,East,8.1,-,N/A,,Mostly Cloudy,100,2013-11-03 21:53:00
5:53 PM,45.0,37.0,74,30.31,10.0,East,6.9,-,N/A,,Mostly Cloudy,100,2013-11-03 22:53:00
6:53 PM,39.0,34.0,82,30.32,10.0,East,5.8,-,N/A,,Clear,100,2013-11-03 23:53:00
7:53 PM,37.9,34.0,86,30.33,10.0,East,5.8,-,N/A,,Clear,100,2013-11-04 00:53:00
8:53 PM,39.0,35.1,86,30.33,10.0,ESE,5.8,-,N/A,,Clear,110,2013-11-04 01:53:00
9:53 PM,37.9,34.0,86,30.35,10.0,ESE,5.8,-,N/A,,Clear,120,2013-11-04 02:53:00
10:53 PM,37.9,34.0,86,30.35,10.0,ESE,5.8,-,N/A,,Clear,110,2013-11-04 03:53:00